Regional Weather Roundup
Issued by NWS

Home | Current Version | Previous Version | Graphics & Text | Print | Product List | Glossary On
Versions: 1 2 3 4 5 6 7 8 9 10 11 12 13 14 15 16 17 18 19 20 21 22 23 24 25 26 27 28 29 30 31 32 33 34 35 36 37 38 39 40 41 42 43 44 45 46 47 48 49 50
000
ASUS43 KDMX 282207
RWRIA

WEATHER ROUNDUP FOR IOWA
NATIONAL WEATHER SERVICE DES MOINES IA
500 PM CDT THU AUG 28 2014

NOTE: "FAIR" INDICATES FEW OR NO CLOUDS BELOW 12,000 FEET WITH NO
SIGNIFICANT WEATHER AND/OR OBSTRUCTIONS TO VISIBILITY.

* - THESE STATIONS ARE NOT NWS STATIONS...THUS NOT UNDER NWS
QUALITY CONTROL.  THEY ALSO DO NOT REPORT WEATHER SUCH
AS PRECIPITATION OR FOG.

IAZ001>003-012>014-020>022-031>034-043>046-282300-
   NORTHWEST IOWA

CITY           SKY/WX    TMP DP  RH WIND       PRES   REMARKS
CARROLL *      CLOUDY    77  72  83 S12       29.90S
DENISON *      SUNNY     77  73  88 S9        29.87F
LE MARS *      CLOUDY    79  73  83 S9        29.85F HX  82
ORANGE CITY *  CLOUDY    75  70  83 E5        29.87F
SHELDON *      PTSUNNY   72  70  94 E7        29.87F
SIOUX CITY     CLOUDY    80  72  76 S8        29.84F HX  84
SPENCER        CLOUDY    70  68  93 E8        29.90F
STORM LAKE *   PTSUNNY   75  75 100 S9        29.89F FOG
$$

IAZ055>058-069>071-079>083-090>094-282300-
   SOUTHWEST IOWA

CITY           SKY/WX    TMP DP  RH WIND       PRES   REMARKS
ATLANTIC *     SUNNY     79  72  78 S8        29.88F HX  82
AUDUBON *      MOSUNNY   81  75  83 S8        29.91F HX  86
CLARINDA *     SUNNY     82  77  83 CALM      29.89S HX  91
COUNCIL BLFS * MOSUNNY   79  75  89 S8        29.87S HX  82
CRESTON *      MOSUNNY   81  75  83 VRB6      29.91F HX  86
HARLAN  *      PTSUNNY   81  73  78 S10       29.91F HX  85
LAMONI         MOSUNNY   83  73  72 S6        29.92S HX  89
RED OAK *      MOSUNNY   82  75  78 S6        29.88F HX  89
SHENANDOAH *   SUNNY     82  75  78 S7        29.88S HX  89
$$

IAZ047>049-059>061-072>074-084-282300-
   CENTRAL IOWA

CITY           SKY/WX    TMP DP  RH WIND       PRES   REMARKS
AMES           CLOUDY    76  71  85 SE12      29.92F
ANKENY *       CLOUDY    77  73  88 SE8       29.91F
CHARITON *     MOSUNNY   81  73  78 E9        29.93S HX  85
DES MOINES     PTSUNNY   79  72  79 S10       29.91F HX  82
GRINNELL*      MOSUNNY   75  70  83 E12       29.95F
KNOXVILLE *    PTSUNNY   75  72  88 SE9       29.92S
MARSHALLTOWN   PTSUNNY   74  69  85 SE10      29.94F
PELLA *        MOSUNNY   77  72  83 SE10      29.95S
PERRY *          N/A     77  72  83 SE9       29.90F
$$

IAZ004>006-015-016-023>025-035-036-282300-
   NORTH CENTRAL IOWA

CITY           SKY/WX    TMP DP  RH WIND       PRES   REMARKS
ALGONA *       PTSUNNY   72  72 100 S8        29.92S
CLARION *      RAIN      73  72  94 SE8       29.92F
ESTHERVILLE    CLOUDY    67  66  97 E8        29.91F
FORT DODGE *   PTSUNNY   73  70  88 S6        29.92S
MASON CITY     RAIN      68  67  96 SE10      29.95F FOG
FOREST CITY *  RAIN      68  68 100 SE6       29.93F
IOWA FALLS *   CLOUDY    73  68  83 SE13G18   29.95S
$$

IAZ007>011-017>019-026>030-037>042-050>054-066-282300-
   NORTHEAST IOWA

CITY           SKY/WX    TMP DP  RH WIND       PRES   REMARKS
CEDAR RAPIDS   CLOUDY    69  67  93 SE9       29.98S
CHARLES CITY * CLOUDY    68  66  94 SE7       29.96S
CLINTON *      CLOUDY    68  64  88 SE10      30.05F
DECORAH *      CLOUDY    66  64  94 SE8G15    29.97F FOG
DUBUQUE        CLOUDY    70  64  81 SE14G20   30.02F
MONTICELLO *   PTSUNNY   72  66  83 SE13      29.99F
OELWEIN *      CLOUDY    72  66  83 SE17      29.99S
WATERLOO       CLOUDY    72  67  84 SE17      29.95F
$$

IAZ064-065-067-068-078-282300-
   EAST CENTRAL IOWA

CITY           SKY/WX    TMP DP  RH WIND       PRES   REMARKS
DAVENPORT      RAIN      68  66  93 E13       30.02F FOG
IOWA CITY      CLOUDY    70  69  97 SE10      29.99S
MT. PLEASANT * RAIN      70  68  94 E7        29.99F
MUSCATINE *    CLOUDY    70  68  94 E6        29.98S
QUAD CITIES    LGT RAIN  69  66  90 E12       30.01F
$$

IAZ062-063-075>077-085>089-095>099-282300-
   SOUTHEAST IOWA

CITY           SKY/WX    TMP DP  RH WIND       PRES   REMARKS
BURLINGTON     LGT RAIN  70  70 100 SE5       30.00F
FAIRFIELD *    CLOUDY    70  68  94 E10       29.97F
FORT MADISON * RAIN      72  72 100 SE3       30.00F
KEOKUK *       LGT RAIN  70  70 100 N7        29.96F
OSKALOOSA *    PTSUNNY   73  70  88 SE14      29.96F
CENTERVILLE *  MOSUNNY   77  75  94 E9        29.96R
OTTUMWA        CLOUDY    73  69  87 E14       29.94F
WASHINGTON *   PTSUNNY   70  70 100 SE12G17   29.98S
$$

ABBREVIATIONS USED IN REMARKS
   TC - TEMPERATURES IN CELSIUS
  WCI - WIND CHILL INDEX
   HX - HEAT INDEX
  VSB - VISIBILITY
$$




USA.gov is the U.S. government's official web portal to all federal, state and local government web resources and services.